Weather History for Gillette, WY

Change the Weather History Date:

Wednesday, December 5, 2012

  Actual Average Record
Temperature  
Mean Temperature 49 °F 25 °F  
Max Temperature 58 °F 35 °F 69 °F (1939)
Min Temperature 39 °F 14 °F -26 °F (1972)
Degree Days  
Heating Degree Days 16 40  
Month to date heating degree days 112 198  
Since 1 July heating degree days 1728 2073  
Cooling Degree Days 0 0  
Month to date cooling degree days 0 0  
Year to date cooling degree days 795 502  
Moisture  
Dew Point 32 °F    
Average Humidity 60    
Maximum Humidity 79    
Minimum Humidity 40    
Precipitation  
Precipitation 0.00 in 0.02 in 0.21 in (1978)
Month to date precipitation T 0.10  
Year to date precipitation 9.01 13.59  
Sea Level Pressure  
Sea Level Pressure 29.79 in    
Wind  
Wind Speed 16 mph (WSW)    
Max Wind Speed 28 mph    
Max Gust Speed 35 mph    
Visibility 10 miles    
Events      
T = Trace of Precipitation, MM = Missing Value Source: NWS Daily Summary

Daily Weather History Graph

Daily Weather History Graph

Search for Another Location

Airport:

Trip Planner

Search our weather history database for the weather conditions in past years. The results will help you decide how hot, cold, wet, or windy it might be!

Date:

Astronomy

Dec. 05, 2012 Rise Set
Actual Time 7:22 AM MST 4:23 PM MST
Civil Twilight 6:49 AM MST 4:56 PM MST
Nautical Twilight 6:13 AM MST 5:32 PM MST
Astronomical Twilight 5:38 AM MST 6:07 PM MST
Moon 11:27 PM MST (12/5) 11:37 AM MST (12/5)
Length of Visible Light 10h 06m
Length of Day
9h 00m
Waning Gibbous, 59% of the Moon is Illuminated
Dec 5
Waning Gibbous
Dec 6
Last Quarter
Dec 13
New
Dec 19
First Quarter
Dec 28
Full

Hourly Weather History & Observations

Time (MST) Temp. Windchill Dew Point Humidity Pressure Visibility Wind Dir Wind Speed Gust Speed Precip Events Conditions
12:53 AM 41.0 °F 37.1 °F 30.0 °F 65% 29.92 in 10.0 mi SE 5.8 mph - N/A   Clear
1:53 AM 46.0 °F 38.5 °F 32.0 °F 58% 29.88 in 10.0 mi SSW 19.6 mph 25.3 mph N/A   Clear
2:53 AM 46.0 °F 37.8 °F 33.1 °F 61% 29.85 in 10.0 mi SW 23.0 mph 28.8 mph N/A   Clear
3:53 AM 46.0 °F 38.8 °F 33.1 °F 61% 29.82 in 10.0 mi SW 18.4 mph 26.5 mph N/A   Clear
4:53 AM 46.9 °F - 34.0 °F 61% 29.82 in 10.0 mi SW 17.3 mph - N/A   Partly Cloudy
5:53 AM 46.0 °F 38.5 °F 34.0 °F 63% 29.80 in 10.0 mi SW 19.6 mph - N/A   Clear
7:53 AM 46.9 °F - 33.1 °F 59% 29.78 in 10.0 mi SW 24.2 mph 29.9 mph N/A   Partly Cloudy
8:53 AM 48.0 °F - 33.1 °F 56% 29.77 in 10.0 mi SW 21.9 mph - N/A   Clear
9:53 AM 50.0 °F - 33.1 °F 52% 29.76 in 10.0 mi SW 20.7 mph - N/A   Clear
10:53 AM 53.1 °F - 33.1 °F 47% 29.73 in 10.0 mi WSW 20.7 mph 31.1 mph N/A   Clear
11:53 AM 55.4 °F - 33.8 °F 44% 29.74 in 10.0 mi WSW 18.4 mph - N/A   Clear
12:53 PM 57.0 °F - 33.1 °F 40% 29.68 in 10.0 mi WSW 17.3 mph - N/A   Clear
1:53 PM 57.0 °F - 33.1 °F 40% 29.65 in 10.0 mi SW 17.3 mph 24.2 mph N/A   Scattered Clouds
2:53 PM 57.0 °F - 33.1 °F 40% 29.65 in 10.0 mi SW 18.4 mph 26.5 mph N/A   Scattered Clouds
3:53 PM 55.0 °F - 34.0 °F 45% 29.67 in 10.0 mi WSW 11.5 mph - N/A   Mostly Cloudy
4:53 PM 53.1 °F - 34.0 °F 48% 29.68 in 10.0 mi WSW 9.2 mph - N/A   Partly Cloudy
5:53 PM 52.0 °F - 34.0 °F 50% 29.72 in 10.0 mi West 9.2 mph - N/A   Mostly Cloudy
6:53 PM 48.0 °F - 35.1 °F 61% 29.76 in 10.0 mi North 10.4 mph - N/A   Mostly Cloudy
7:53 PM 46.9 °F - 35.1 °F 63% 29.80 in 10.0 mi North 6.9 mph 17.3 mph N/A   Mostly Cloudy
8:53 PM 39.9 °F 35.8 °F 33.1 °F 77% 29.85 in 10.0 mi NNE 5.8 mph - N/A   Partly Cloudy
9:53 PM 43.0 °F 35.7 °F 28.0 °F 56% 29.88 in 10.0 mi North 15.0 mph - N/A   Overcast
10:53 PM 43.0 °F 36.4 °F 21.9 °F 43% 29.91 in 10.0 mi North 12.7 mph - N/A   Overcast
11:53 PM 39.0 °F 31.4 °F 23.0 °F 53% 29.95 in 10.0 mi North 12.7 mph - N/A   Overcast